Weather WX

World > North America > United States > North Dakota

Revere, North Dakota Regional Weather

Lat: 47.36N, Lon: 98.33W
Wx Zone: NDZ028
Feedback

Revere, ND Regional Weather

Expires:201907161700;;736134
ASUS43 KBIS 161610
RWRND 

NORTH DAKOTA REGIONAL WEATHER ROUNDUP
NATIONAL WEATHER SERVICE BISMARCK ND
1100 AM CDT TUE JUL 16 2019

NOTE: "FAIR" INDICATES FEW OR NO CLOUDS BELOW 12,000 FEET WITH NO
SIGNIFICANT WEATHER AND/OR OBSTRUCTIONS TO VISIBILITY.



NDZ022-023-025-028>030-036>039-047>053-161700-
SOUTHEAST NORTH DAKOTA
  
CITY           SKY/WX    TMP DP  RH WIND       PRES   REMARKS
FARGO          MOSUNNY   80  63  55 CALM      29.90S                  
JAMESTOWN      SUNNY     77  64  64 CALM      29.94R                  
$$ 

  

SKY/WX - Weather  TMP - Temperature  DP - Dew Point  RH - Relative Humidity
WIND - Wind Direction/Speed PRES - Barometric Pressure VSB - Visibility
WCI - Wind Chill Index E13G22 Wind - East Wind 13 mph/Gusts of 22 mph